Weather History for Grenchen, Switzerland

Change the Weather History Date:

Wednesday, September 4, 2013

  Actual Average (LSZB) Record (LSZB)
Temperature  
Mean Temperature 66 °F -  
Max Temperature 82 °F 63 °F 82 °F (2013)
Min Temperature 51 °F 45 °F 39 °F (2003)
Cooling Degree Days 2    
Growing Degree Days 16 (Base 50)    
Moisture  
Dew Point 56 °F    
Average Humidity 72    
Maximum Humidity 100    
Minimum Humidity 32    
Precipitation  
Precipitation 0.00 in - - ()
Sea Level Pressure  
Sea Level Pressure 30.20 in    
Wind  
Wind Speed 1 mph ()    
Max Wind Speed 4 mph    
Max Gust Speed -    
Visibility 4.0 miles    
Events Fog    
Averages and records for this station are not official NWS values.
T = Trace of Precipitation, MM = Missing Value Source: Averaged Metar Reports

Daily Weather History Graph

Daily Weather History Graph

Search for Another Location

Airport:

Trip Planner

Search our weather history database for the weather conditions in past years. The results will help you decide how hot, cold, wet, or windy it might be!

Date:

Astronomy

Sep. 04, 2013 Rise Set
Actual Time 6:53 AM CEST 8:04 PM CEST
Civil Twilight 6:21 AM CEST 8:35 PM CEST
Nautical Twilight 5:44 AM CEST 9:13 PM CEST
Astronomical Twilight 5:03 AM CEST 9:53 PM CEST
Moon 5:48 AM CEST (9/4) 7:13 PM CEST (9/4)
Length of Visible Light 14h 13m
Length of Day
13h 10m
Waning Crescent, 1% of the Moon is Illuminated
Sep 4
Waning Crescent
Sep 5
New
Sep 12
First Quarter
Sep 19
Full
Sep 27
Last Quarter

Hourly Weather History & Observations

Time (CEST) Temp. Heat Index Dew Point Humidity Pressure Visibility Wind Dir Wind Speed Gust Speed Precip Events Conditions
12:00 AM 58 °F - 54 °F 83% 30.28 in - NW 1.2 mph - -  
12:50 AM 57.2 °F - 53.6 °F 88% 30.27 in - Variable 1.2 mph - N/A   Clear
1:00 AM 56 °F - 53 °F 85% 30.29 in - NNE 1.2 mph - -  
1:20 AM 57.2 °F - 53.6 °F 88% 30.27 in - Variable 1.2 mph - N/A   Clear
1:50 AM 55.4 °F - 51.8 °F 88% 30.27 in - Calm Calm - N/A   Clear
2:20 AM 55.4 °F - 53.6 °F 94% 30.27 in - Calm Calm - N/A   Clear
2:50 AM 57.2 °F - 53.6 °F 88% 30.27 in - Variable 2.3 mph - N/A   Clear
3:20 AM 53.6 °F - 50.0 °F 88% 30.27 in - WSW 2.3 mph - N/A   Clear
3:50 AM 53.6 °F - 51.8 °F 94% 30.27 in - Variable 1.2 mph - N/A   Clear
4:00 AM 54 °F - 51 °F 87% 30.29 in - NNW 1.2 mph - -  
4:20 AM 55.4 °F - 53.6 °F 94% 30.27 in - ESE 1.2 mph - N/A   Clear
4:50 AM 53.6 °F - 51.8 °F 94% 30.27 in - Calm Calm - N/A   Clear
5:20 AM 53.6 °F - 51.8 °F 94% 30.24 in - SW 1.2 mph - N/A   Clear
5:50 AM 53.6 °F - 51.8 °F 94% 30.24 in - WSW 1.2 mph - N/A   Clear
6:20 AM 51.8 °F - 50.0 °F 94% 30.24 in - Calm Calm - N/A   Clear
6:50 AM 51.8 °F - 50.0 °F 94% 30.27 in - Calm Calm - N/A   Mist
7:00 AM 52 °F - 51 °F 95% 30.29 in - SSW 1.2 mph - -  
7:20 AM 51.8 °F - 51.8 °F 100% 30.27 in 1.9 mi Calm Calm - N/A   Mist
7:50 AM 51.8 °F - 51.8 °F 100% 30.27 in 6.2 mi Calm Calm - N/A Fog Shallow Fog
8:20 AM 57.2 °F - 55.4 °F 94% 30.27 in - Calm Calm - N/A   Clear
8:50 AM 59.0 °F - 55.4 °F 88% 30.27 in - East 1.2 mph - N/A   Clear
9:00 AM 60 °F - 56 °F 82% 30.27 in - SE 2.3 mph - -  
9:20 AM 60.8 °F - 55.4 °F 82% 30.27 in - Variable 2.3 mph - N/A   Clear
9:50 AM 64.4 °F - 57.2 °F 77% 30.27 in - Variable 1.2 mph - N/A   Clear
10:00 AM 64 °F - 57 °F 71% 30.25 in - NW 1.2 mph - -  
10:20 AM 66.2 °F - 57.2 °F 73% 30.27 in - Variable 1.2 mph - N/A   Clear
10:50 AM 68.0 °F - 57.2 °F 68% 30.27 in - Variable 2.3 mph - N/A   Clear
11:20 AM 69.8 °F - 57.2 °F 64% 30.24 in - Variable 1.2 mph - N/A   Clear
11:50 AM 71.6 °F - 59.0 °F 64% 30.24 in - Variable 2.3 mph - N/A   Clear
12:00 PM 71 °F - 58 °F 54% 30.22 in - NE 2.3 mph - -  
12:20 PM 73.4 °F - 59.0 °F 61% 30.24 in - Variable 2.3 mph - N/A   Clear
12:50 PM 73.4 °F - 57.2 °F 57% 30.24 in - Variable 2.3 mph - N/A   Clear
1:00 PM 73 °F - 57 °F 47% 30.19 in - West 3.5 mph - -  
1:20 PM 75.2 °F - 55.4 °F 50% 30.21 in - Variable 2.3 mph - N/A   Clear
1:50 PM 77.0 °F - 55.4 °F 47% 30.21 in - Variable 2.3 mph - N/A   Clear
2:20 PM 77.0 °F - 55.4 °F 47% 30.21 in - Variable 2.3 mph - N/A   Clear
2:50 PM 78.8 °F - 59.0 °F 51% 30.18 in - Variable 3.5 mph - N/A   Clear
3:00 PM 78 °F - 58 °F 39% 30.13 in - WSW 2.3 mph - -  
3:20 PM 78.8 °F - 60.8 °F 54% 30.18 in - Variable 2.3 mph - N/A   Clear
3:50 PM 78.8 °F - 57.2 °F 47% 30.15 in - Variable 2.3 mph - N/A   Clear
4:00 PM 80 °F - 59 °F 38% 30.10 in - SW 2.3 mph - -  
4:20 PM 80.6 °F 81.1 °F 59.0 °F 48% 30.15 in - Variable 3.5 mph - N/A   Clear
4:50 PM 82.4 °F 82.5 °F 59.0 °F 45% 30.15 in - Variable 2.3 mph - N/A   Clear
5:20 PM 80.6 °F 80.5 °F 55.4 °F 42% 30.15 in - Variable 1.2 mph - N/A   Clear
5:50 PM 82.4 °F 82.0 °F 57.2 °F 42% 30.12 in - Calm Calm - N/A   Clear
6:00 PM 82 °F - 57 °F 32% 30.07 in - WNW 1.2 mph - -  
6:20 PM 80.6 °F 81.1 °F 59.0 °F 48% 30.12 in - Variable 1.2 mph - N/A   Clear
6:50 PM 80.6 °F 80.8 °F 57.2 °F 45% 30.12 in - Variable 1.2 mph - N/A   Clear
7:00 PM 80 °F - 60 °F 40% 30.06 in - ENE 1.2 mph - -  
7:20 PM 80.6 °F 81.1 °F 59.0 °F 48% 30.12 in - Variable 1.2 mph - N/A   Clear
7:50 PM 75.2 °F - 62.6 °F 65% 30.12 in - Variable 2.3 mph - N/A   Clear
8:20 PM 71.6 °F - 62.6 °F 73% 30.12 in - East 2.3 mph - N/A   Clear
8:50 PM 68.0 °F - 60.8 °F 78% 30.12 in - East 2.3 mph - N/A   Clear
9:00 PM 67 °F - 61 °F 74% 30.10 in - East 2.3 mph - -  
9:20 PM 66.2 °F - 60.8 °F 83% 30.12 in - East 2.3 mph - N/A   Clear
9:50 PM 64.4 °F - 59.0 °F 83% 30.12 in - Variable 1.2 mph - N/A   Clear
10:00 PM 65 °F - 60 °F 78% 30.11 in - SSW 1.2 mph - -  
10:20 PM 64.4 °F - 60.8 °F 88% 30.12 in - WSW 1.2 mph - N/A   Clear
10:50 PM 62.6 °F - 60.8 °F 94% 30.12 in - Calm Calm - N/A   Clear
11:20 PM 60.8 °F - 57.2 °F 88% 30.12 in - Calm Calm - N/A   Clear
11:50 PM 60.8 °F - 59.0 °F 94% 30.12 in - South 1.2 mph - N/A   Clear